Terminal Aerodrome Forecast
Issued by NWS Atlanta, GA

Home | Current Version | Previous Version | Text Only | Print | Product List | Glossary On
Versions: 1 2 3 4 5 6 7 8 9 10 11 12 13 14 15 16 17 18 19 20 21 22 23 24 25 26 27 28 29 30 31 32 33 34 35 36 37 38 39
000
FTUS42 KFFC 252321
TAFATL
TAF
KATL 252321Z 2600/2706 15009KT 6SM -SHRA BKN035
      TEMPO 2600/2603 VRB12G22KT 3SM TSRA BR BKN025CB
     FM260300 13007KT P6SM VCSH SCT025 BKN040
     FM260500 13007KT P6SM VCSH OVC018
     FM260800 14007KT P6SM OVC007
     FM261500 15007KT P6SM OVC012
     FM261700 16007KT P6SM -SHRA OVC025
      TEMPO 2620/2624 3SM TSRA BR OVC015CB=

USA.gov is the U.S. government's official web portal to all federal, state and local government web resources and services.